Location: Bailleul
(50.3375°N, 2.8513°E)
Time: 20:38:18
(UTC+00:00)

Cosmos 2297 Rocket - Pass Details

Date: 19 April 2021
Orbit: 838 x 845 km, 71.0° (Epoch: 18 May)

Event Time Altitude Azimuth Distance (km) Brightness Sun altitude
Rises 19:43:57 0° 165° (SSE) 3,379 4.9 -8.7°
Reaches altitude 10° 19:46:52 10° 151° (SSE) 2,451 4.1 -9.1°
Maximum altitude 19:51:06 22° 101° (ESE) 1,747 3.3 -9.7°
Drops below altitude 10° 19:55:21 10° 52° (NE) 2,468 4.4 -10.2°
Sets 19:58:17 0° 39° (NE) 3,409 5.3 -10.6°
